Location: Beulah
(33.1426°N, 83.0557°W)
Time: 04:22:59
(UTC+00:00)

Envisat - Pass Details

Date: 08 December 2021
Orbit: 764 x 766 km, 98.2° (Epoch: 23 January)

Event Time Altitude Azimuth Distance (km) Brightness Sun altitude
Rises 11:26:31 0° 356° (N) 3,236 6.0 -11.8°
Reaches altitude 10° 11:29:14 10° 342° (NNW) 2,306 5.1 -11.2°
Maximum altitude 11:33:08 23° 291° (WNW) 1,593 4.0 -10.5°
Drops below altitude 10° 11:37:01 10° 241° (WSW) 2,295 5.1 -9.7°
Sets 11:39:44 0° 227° (SW) 3,217 6.0 -9.2°
